Tracking 23645 objects as of 21-Sep-2021
HD Live streaming from Space Station
objects crossing your sky now

TITAN 3D DEB

Track TITAN 3D DEB now!
10-day predictions


NORAD ID: 6824
Int'l Code: 1972-079E
Perigee: 1,439.2 km
Apogee: 1,451.0 km
Inclination: 95.5 °
Period: 114.6 minutes
Semi major axis: 7816 km
RCS: 0.0728 m2 (small)
Launch date: October 10, 1972
Source: United States (US)
Launch site: AIR FORCE WESTERN TEST RANGE (AFWTR)

Note: This is SATELLITE DEBRIS
aabbcc
Your satellite tracking list
Your tracking list is empty




NASA's NSSDC Master Catalog

Two Line Element Set (TLE):
1 06824U 72079E   21263.49829274  .00000001  00000-0  77367-4 0  9999
2 06824  95.5050  88.0230 0007554  55.0332 331.0875 12.56372545243529
Source of the keplerian elements: AFSPC